Weather History for KTMA - February, 2014

Change the Weather History Date:

Thursday, February 13, 2014

  Actual Average Record
Temperature  
Mean Temperature 42 °F -  
Max Temperature 78 °F 60 °F 78 °F (2014)
Min Temperature 33 °F 37 °F 28 °F (2015)
Degree Days  
Heating Degree Days 23    
Moisture  
Dew Point 32 °F    
Average Humidity 77    
Maximum Humidity 100    
Minimum Humidity 42    
Precipitation  
Precipitation 0.00 in - - ()
Sea Level Pressure  
Sea Level Pressure 29.83 in    
Wind  
Wind Speed 9 mph (WNW)    
Max Wind Speed 20 mph    
Max Gust Speed 26 mph    
Visibility 9 miles    
Events      
Averages and records for this station are not official NWS values.
T = Trace of Precipitation, MM = Missing Value Source: NWS Daily Summary

Daily Weather History Graph

Daily Weather History Graph

Search for Another Location

Airport or City:

Trip Planner

Search our weather history database for the weather conditions in past years. The results will help you decide how hot, cold, wet, or windy it might be!

Date:

Astronomy

Feb. 13, 2014 Rise Set
Actual Time 7:17 AM EST 6:19 PM EST
Civil Twilight 6:52 AM EST 6:44 PM EST
Nautical Twilight 6:23 AM EST 7:12 PM EST
Astronomical Twilight 5:55 AM EST 7:41 PM EST
Moon 5:26 PM EST (2/13) 6:08 AM EST (2/13)
Length of Visible Light 11h 51m
Length of Day
11h 02m
Waxing Gibbous, 98% of the Moon is Illuminated
Feb 13
Waxing Gibbous
Feb 14
Full
Feb 22
Last Quarter
Mar 1
New
Mar 8
First Quarter

Hourly Weather History & Observations

Time (EST) Temp. Windchill Dew Point Humidity Pressure Visibility Wind Dir Wind Speed Gust Speed Precip Events Conditions
12:15 AM 34.2 °F 28.2 °F 34.2 °F 100% 29.73 in 4.0 mi North 6.9 mph - N/A   Overcast
12:35 AM 33.8 °F 28.6 °F 33.8 °F 100% 29.72 in 4.0 mi North 5.8 mph - N/A   Overcast
12:55 AM 33.8 °F 29.6 °F 33.8 °F 100% 29.71 in 4.0 mi NNE 4.6 mph - N/A   Overcast
1:15 AM 33.8 °F 29.6 °F 33.8 °F 100% 29.72 in 10.0 mi North 4.6 mph - N/A   Overcast
1:35 AM 33.8 °F 30.8 °F 33.8 °F 100% 29.72 in 10.0 mi North 3.5 mph - N/A   Light Drizzle
1:55 AM 33.8 °F 27.7 °F 33.8 °F 100% 29.73 in 4.0 mi NNW 6.9 mph - N/A   Overcast
2:15 AM 33.6 °F 28.4 °F 33.6 °F 100% 29.73 in 10.0 mi North 5.8 mph - N/A   Overcast
2:35 AM 33.3 °F 27.9 °F 33.3 °F 100% 29.73 in 10.0 mi NNW 5.8 mph - N/A   Overcast
2:55 AM 33.6 °F 26.8 °F 33.4 °F 99% 29.74 in 10.0 mi NW 8.1 mph - N/A   Overcast
3:15 AM 33.8 °F 25.8 °F 33.8 °F 100% 29.75 in 5.0 mi NW 10.4 mph - N/A   Overcast
3:35 AM 33.6 °F 25.6 °F 33.6 °F 100% 29.75 in 4.0 mi NW 10.4 mph 16.1 mph N/A   Overcast
3:55 AM 33.4 °F 26.6 °F 33.4 °F 100% 29.75 in 5.0 mi NW 8.1 mph - N/A   Overcast
4:15 AM 33.6 °F 26.2 °F 33.6 °F 100% 29.75 in 5.0 mi WNW 9.2 mph - N/A   Overcast
4:35 AM 33.8 °F 25.3 °F 33.8 °F 100% 29.75 in 7.0 mi WNW 11.5 mph - N/A   Overcast
4:55 AM 33.8 °F 24.8 °F 33.6 °F 99% 29.76 in 10.0 mi WNW 12.7 mph 19.6 mph N/A   Overcast
5:15 AM 33.6 °F 26.8 °F 33.3 °F 99% 29.76 in 10.0 mi WNW 8.1 mph - N/A   Overcast
5:35 AM 33.8 °F 25.8 °F 33.3 °F 98% 29.76 in 10.0 mi WNW 10.4 mph - N/A   Overcast
5:55 AM 33.8 °F 27.0 °F 33.3 °F 98% 29.77 in 10.0 mi WNW 8.1 mph - N/A   Overcast
6:15 AM 33.8 °F 25.8 °F 33.4 °F 99% 29.77 in 10.0 mi West 10.4 mph - N/A   Overcast
6:35 AM 34.0 °F 27.2 °F 33.3 °F 97% 29.79 in 10.0 mi WNW 8.1 mph - N/A   Overcast
6:55 AM 34.2 °F 27.5 °F 33.3 °F 97% 29.79 in 10.0 mi WNW 8.1 mph - N/A   Overcast
7:15 AM 34.2 °F 27.5 °F 33.3 °F 97% 29.80 in 7.0 mi WNW 8.1 mph - N/A   Light Drizzle
7:35 AM 34.2 °F 25.7 °F 33.6 °F 98% 29.81 in 10.0 mi WNW 11.5 mph 16.1 mph N/A   Overcast
7:55 AM 34.5 °F 25.7 °F 33.3 °F 95% 29.81 in 10.0 mi WNW 12.7 mph 21.9 mph N/A   Overcast
8:15 AM 34.5 °F 25.7 °F 32.9 °F 94% 29.82 in 10.0 mi WNW 12.7 mph 20.7 mph N/A   Overcast
8:35 AM 34.3 °F 26.5 °F 32.7 °F 94% 29.82 in 10.0 mi WNW 10.4 mph - N/A   Overcast
8:55 AM 34.3 °F 24.6 °F 32.2 °F 92% 29.84 in 10.0 mi WNW 15.0 mph 19.6 mph N/A   Overcast
9:15 AM 34.7 °F 26.4 °F 32.2 °F 91% 29.85 in 10.0 mi WNW 11.5 mph 16.1 mph N/A   Overcast
9:35 AM 34.9 °F 26.2 °F 32.2 °F 90% 29.86 in 10.0 mi WNW 12.7 mph 19.6 mph N/A   Overcast
9:55 AM 36.0 °F 28.0 °F 32.4 °F 87% 29.86 in 10.0 mi West 11.5 mph 16.1 mph N/A   Scattered Clouds
10:15 AM 37.6 °F 29.6 °F 32.9 °F 83% 29.86 in 10.0 mi WNW 12.7 mph 20.7 mph N/A   Mostly Cloudy
10:35 AM 38.3 °F 30.5 °F 32.7 °F 80% 29.88 in 10.0 mi West 12.7 mph 23.0 mph N/A   Overcast
10:55 AM 38.5 °F 30.7 °F 32.0 °F 78% 29.88 in 10.0 mi West 12.7 mph 20.7 mph N/A   Overcast
11:15 AM 39.4 °F 31.4 °F 32.4 °F 76% 29.87 in 10.0 mi WNW 13.8 mph 19.6 mph N/A   Overcast
11:35 AM 39.4 °F 31.1 °F 32.4 °F 76% 29.88 in 10.0 mi WNW 15.0 mph 26.5 mph N/A   Overcast
11:55 AM 40.1 °F 31.3 °F 33.1 °F 76% 29.87 in 10.0 mi WNW 17.3 mph 21.9 mph N/A   Overcast
12:15 PM 40.6 °F 32.3 °F 33.3 °F 75% 29.86 in 10.0 mi WNW 16.1 mph 20.7 mph N/A   Overcast
12:35 PM 41.2 °F 34.1 °F 33.8 °F 75% 29.85 in 10.0 mi WNW 12.7 mph 21.9 mph N/A   Overcast
12:55 PM 41.7 °F 34.8 °F 34.0 °F 74% 29.84 in 10.0 mi WNW 12.7 mph 17.3 mph N/A   Overcast
1:15 PM 43.0 °F 34.5 °F 34.9 °F 73% 29.82 in 10.0 mi NW 19.6 mph 23.0 mph N/A   Overcast
1:35 PM 43.7 °F 37.3 °F 34.7 °F 71% 29.82 in 10.0 mi WNW 12.7 mph - N/A   Mostly Cloudy
1:55 PM 45.3 °F 38.7 °F 34.9 °F 67% 29.81 in 10.0 mi West 15.0 mph 19.6 mph N/A   Scattered Clouds
2:35 PM 47.7 °F - 34.7 °F 61% 29.80 in 10.0 mi WNW 16.1 mph 19.6 mph N/A   Scattered Clouds
2:55 PM 48.6 °F - 34.2 °F 58% 29.81 in 10.0 mi WNW 11.5 mph 17.3 mph N/A   Scattered Clouds
3:15 PM 49.5 °F - 33.8 °F 55% 29.81 in 10.0 mi WNW 16.1 mph 23.0 mph N/A   Clear
3:35 PM 50.4 °F - 33.1 °F 52% 29.81 in 10.0 mi West 12.7 mph - N/A   Clear
3:55 PM 51.1 °F - 32.9 °F 50% 29.83 in 10.0 mi WNW 11.5 mph 20.7 mph N/A   Clear
4:15 PM 51.4 °F - 31.8 °F 47% 29.84 in 10.0 mi West 12.7 mph 18.4 mph N/A   Clear
4:35 PM 51.8 °F - 30.6 °F 44% 29.84 in 10.0 mi West 11.5 mph 20.7 mph N/A   Clear
4:55 PM 51.8 °F - 29.7 °F 43% 29.85 in 10.0 mi WNW 11.5 mph 19.6 mph N/A   Clear
5:15 PM 51.8 °F - 29.7 °F 43% 29.85 in 10.0 mi WNW 11.5 mph 17.3 mph N/A   Clear
5:35 PM 51.6 °F - 29.1 °F 42% 29.85 in 10.0 mi WNW 11.5 mph 18.4 mph N/A   Clear
5:55 PM 50.9 °F - 29.5 °F 44% 29.86 in 10.0 mi West 8.1 mph - N/A   Clear
6:15 PM 49.8 °F - 30.0 °F 47% 29.87 in 10.0 mi WNW 6.9 mph - N/A   Clear
6:35 PM 48.6 °F - 29.7 °F 48% 29.88 in 10.0 mi West 5.8 mph - N/A   Clear
6:55 PM 47.7 °F - 29.7 °F 50% 29.88 in 10.0 mi WSW 3.5 mph - N/A   Clear
7:15 PM 46.6 °F - 30.7 °F 54% 29.89 in 10.0 mi WSW 3.5 mph - N/A   Clear
7:35 PM 45.7 °F 44.4 °F 31.5 °F 58% 29.90 in 10.0 mi West 3.5 mph - N/A   Clear
8:15 PM 44.2 °F 41.8 °F 31.5 °F 61% 29.91 in 10.0 mi West 4.6 mph - N/A   Clear
8:55 PM 43.7 °F 41.1 °F 30.7 °F 60% 29.92 in 10.0 mi West 4.6 mph - N/A   Clear
9:15 PM 43.3 °F 41.7 °F 30.9 °F 62% 29.92 in 10.0 mi West 3.5 mph - N/A   Clear
9:35 PM 43.0 °F 41.3 °F 30.9 °F 62% 29.92 in 10.0 mi West 3.5 mph - N/A   Clear
9:55 PM 42.4 °F 39.6 °F 30.6 °F 63% 29.93 in 10.0 mi West 4.6 mph - N/A   Clear
10:15 PM 42.3 °F 38.6 °F 30.2 °F 62% 29.93 in 10.0 mi West 5.8 mph - N/A   Clear
10:35 PM 41.9 °F 39.0 °F 30.2 °F 63% 29.94 in 10.0 mi West 4.6 mph - N/A   Clear
10:55 PM 41.7 °F 39.8 °F 30.2 °F 64% 29.94 in 10.0 mi West 3.5 mph - N/A   Clear
11:15 PM 41.2 °F 39.2 °F 30.4 °F 65% 29.95 in 10.0 mi WSW 3.5 mph - N/A   Clear
11:35 PM 40.6 °F 38.6 °F 30.7 °F 68% 29.96 in 10.0 mi WSW 3.5 mph - N/A   Clear
11:55 PM 40.3 °F 38.2 °F 30.6 °F 68% 29.96 in 10.0 mi West 3.5 mph - N/A   Clear